| time (UTC) | temp C | wind direction | speed KPH | gust KPH | rain 1hr cm | rain 24hr cm | rain mn cm | humidity % | barometer mb |
| 20260507141538 | 25 | 0.0 | 0.0 | 0.00 | 0.00 | 0.00 | 53 | 1022.8 | |
| 20260507140523 | 25 | 0.0 | 0.0 | 0.00 | 0.00 | 0.00 | 51 | 1022.2 | |
| 20260507135523 | 24 | 0.0 | 0.0 | 0.00 | 0.00 | 0.00 | 54 | 1023.1 | |
| 20260507134523 | 25 | 0.0 | 0.0 | 0.00 | 0.00 | 0.00 | 56 | 1022.3 | |
| 20260507133523 | 25 | 0.0 | 0.0 | 0.00 | 0.00 | 0.00 | 56 | 1023.6 | |
| 20260507132525 | 25 | 0.0 | 0.0 | 0.00 | 0.00 | 0.00 | 53 | 1023.1 | |
| 20260507131523 | 25 | 0.0 | 0.0 | 0.00 | 0.00 | 0.00 | 52 | 1023.2 | |
| 20260507130523 | 25 | 0.0 | 0.0 | 0.00 | 0.00 | 0.00 | 51 | 1022.6 | |
| 20260507125525 | 25 | 0.0 | 0.0 | 0.00 | 0.00 | 0.00 | 54 | 1023.0 | |
| 20260507124538 | 25 | 0.0 | 0.0 | 0.00 | 0.00 | 0.00 | 55 | 1023.0 | |
| 20260507123523 | 26 | 0.0 | 0.0 | 0.00 | 0.00 | 0.00 | 56 | 1022.2 | |
| 20260507122526 | 25 | 0.0 | 0.0 | 0.00 | 0.00 | 0.00 | 56 | 1023.4 | |
| 20260507121523 | 25 | 0.0 | 0.0 | 0.00 | 0.00 | 0.00 | 57 | 1022.5 | |
| 20260507120523 | 25 | 0.0 | 0.0 | 0.00 | 0.00 | 0.00 | 56 | 1023.2 | |
| 20260507115538 | 25 | 0.0 | 0.0 | 0.00 | 0.00 | 0.00 | 56 | 1022.0 | |
| 20260507114523 | 23 | 0.0 | 0.0 | 0.00 | 0.00 | 0.00 | 57 | 1023.6 | |
| 20260507113523 | 23 | 0.0 | 0.0 | 0.00 | 0.00 | 0.00 | 59 | 1023.2 | |
| 20260507112523 | 23 | 0.0 | 0.0 | 0.00 | 0.00 | 0.00 | 58 | 1024.0 | |
| 20260507111523 | 23 | 0.0 | 0.0 | 0.00 | 0.00 | 0.00 | 62 | 1022.7 | |
| 20260507110524 | 22 | 0.0 | 0.0 | 0.00 | 0.00 | 0.00 | 62 | 1023.7 | |
| 20260507105523 | 22 | 0.0 | 0.0 | 0.00 | 0.00 | 0.00 | 61 | 1024.8 | |
| 20260507104523 | 23 | 0.0 | 0.0 | 0.00 | 0.00 | 0.00 | 55 | 1023.2 | |
| 20260507103523 | 23 | 0.0 | 0.0 | 0.00 | 0.00 | 0.00 | 59 | 1023.4 | |
| 20260507102553 | 22 | 0.0 | 0.0 | 0.00 | 0.00 | 0.00 | 61 | 1024.3 | |
| 20260507101523 | 22 | 0.0 | 0.0 | 0.00 | 0.00 | 0.00 | 60 | 1025.5 | |
| 20260507100523 | 23 | 0.0 | 0.0 | 0.00 | 0.00 | 0.00 | 62 | 1023.7 | |
| 20260507095523 | 23 | 0.0 | 0.0 | 0.00 | 0.00 | 0.00 | 64 | 1023.5 | |
| 20260507094538 | 22 | 0.0 | 0.0 | 0.00 | 0.00 | 0.00 | 64 | 1023.7 | |
| 20260507093523 | 22 | 0.0 | 0.0 | 0.00 | 0.00 | 0.00 | 63 | 1024.2 | |
| 20260507092523 | 22 | 0.0 | 0.0 | 0.00 | 0.00 | 0.00 | 63 | 1023.6 | |
| 20260507091523 | 22 | 0.0 | 0.0 | 0.00 | 0.00 | 0.00 | 64 | 1023.1 | |
| 20260507090523 | 21 | 0.0 | 0.0 | 0.00 | 0.00 | 0.00 | 65 | 1023.1 | |
| 20260507085523 | 21 | 0.0 | 0.0 | 0.00 | 0.00 | 0.00 | 69 | 1023.6 | |
| 20260507084523 | 20 | 0.0 | 0.0 | 0.00 | 0.00 | 0.00 | 70 | 1022.8 | |
| 20260507083524 | 20 | 0.0 | 0.0 | 0.00 | 0.00 | 0.00 | 69 | 1025.3 | |
| 20260507082523 | 20 | 0.0 | 0.0 | 0.00 | 0.00 | 0.00 | 70 | 1024.2 | |
| 20260507081522 | 20 | 0.0 | 0.0 | 0.00 | 0.00 | 0.00 | 69 | 1022.9 | |
| 20260507080538 | 20 | 0.0 | 0.0 | 0.00 | 0.00 | 0.00 | 71 | 1023.6 | |
| 20260507075522 | 20 | 0.0 | 0.0 | 0.00 | 0.00 | 0.00 | 70 | 1023.1 | |
| 20260507074523 | 19 | 0.0 | 0.0 | 0.00 | 0.00 | 0.00 | 71 | 1024.5 | |
| 20260507073523 | 20 | 0.0 | 0.0 | 0.00 | 0.00 | 0.00 | 71 | 1024.1 | |
| 20260507072523 | 20 | 0.0 | 0.0 | 0.00 | 0.00 | 0.00 | 71 | 1022.9 | |
| 20260507071523 | 19 | 0.0 | 0.0 | 0.00 | 0.00 | 0.00 | 68 | 1023.0 | |
| 20260507070523 | 18 | 0.0 | 0.0 | 0.00 | 0.00 | 0.00 | 70 | 1022.5 | |
| 20260507065538 | 18 | 0.0 | 0.0 | 0.00 | 0.00 | 0.00 | 74 | 1023.3 | |
| 20260507064523 | 18 | 0.0 | 0.0 | 0.00 | 0.00 | 0.00 | 73 | 1023.4 | |
| 20260507063522 | 17 | 0.0 | 0.0 | 0.00 | 0.00 | 0.00 | 75 | 1023.6 | |
| 20260507062522 | 17 | 0.0 | 0.0 | 0.00 | 0.00 | 0.00 | 75 | 1023.1 | |
| 20260507061522 | 17 | 0.0 | 0.0 | 0.00 | 0.00 | 0.00 | 78 | 1023.4 | |
| 20260507060522 | 17 | 0.0 | 0.0 | 0.00 | 0.00 | 0.00 | 79 | 1023.7 | |
| 20260507055522 | 17 | 0.0 | 0.0 | 0.00 | 0.00 | 0.00 | 80 | 1024.0 | |
| 20260507054523 | 17 | 0.0 | 0.0 | 0.00 | 0.00 | 0.00 | 74 | 1024.1 | |
| 20260507053523 | 17 | 0.0 | 0.0 | 0.00 | 0.00 | 0.00 | 75 | 1022.3 | |
| 20260507052523 | 17 | 0.0 | 0.0 | 0.00 | 0.00 | 0.00 | 78 | 1022.1 | |
| 20260507051522 | 16 | 0.0 | 0.0 | 0.00 | 0.00 | 0.00 | 77 | 1023.6 | |
| 20260507050523 | 16 | 0.0 | 0.0 | 0.00 | 0.00 | 0.00 | 80 | 1022.8 | |
| 20260507045523 | 16 | 0.0 | 0.0 | 0.00 | 0.00 | 0.00 | 84 | 1022.8 | |
| 20260507044522 | 16 | 0.0 | 0.0 | 0.00 | 0.00 | 0.00 | 85 | 1022.3 | |
| 20260507043522 | 15 | 0.0 | 0.0 | 0.00 | 0.00 | 0.00 | 89 | 1022.2 | |
| 20260507042522 | 15 | 0.0 | 0.0 | 0.00 | 0.00 | 0.00 | 89 | 1022.8 | |
| 20260507041522 | 15 | 0.0 | 0.0 | 0.00 | 0.00 | 0.00 | 92 | 1022.6 | |
| 20260507040522 | 15 | 0.0 | 0.0 | 0.00 | 0.00 | 0.00 | 89 | 1022.8 | |
| 20260507035522 | 15 | 0.0 | 0.0 | 0.00 | 0.00 | 0.00 | 90 | 1022.7 | |
| 20260507034522 | 15 | 0.0 | 0.0 | 0.00 | 0.00 | 0.00 | 88 | 1022.5 | |
| 20260507033537 | 14 | 0.0 | 0.0 | 0.00 | 0.00 | 0.00 | 92 | 1022.7 | |
| 20260507032522 | 15 | 0.0 | 0.0 | 0.00 | 0.00 | 0.00 | 93 | 1022.5 | |
| 20260507031522 | 14 | 0.0 | 0.0 | 0.00 | 0.00 | 0.00 | 93 | 1022.6 | |
| 20260507030522 | 14 | 0.0 | 0.0 | 0.00 | 0.00 | 0.00 | 95 | 1022.7 | |
| 20260507025553 | 14 | 0.0 | 0.0 | 0.00 | 0.00 | 0.00 | 92 | 1022.7 | |
| 20260507024522 | 15 | 0.0 | 0.0 | 0.00 | 0.00 | 0.00 | 92 | 1022.7 | |
| 20260507023522 | 15 | 0.0 | 0.0 | 0.00 | 0.00 | 0.00 | 92 | 1022.3 | |
| 20260507022522 | 14 | 0.0 | 0.0 | 0.00 | 0.00 | 0.00 | 92 | 1022.5 | |
| 20260507021522 | 15 | 0.0 | 0.0 | 0.00 | 0.00 | 0.00 | 91 | 1022.5 | |
| 20260507020522 | 15 | 0.0 | 0.0 | 0.00 | 0.00 | 0.00 | 93 | 1022.6 | |
| 20260507015522 | 15 | 0.0 | 0.0 | 0.00 | 0.00 | 0.00 | 92 | 1023.0 | |
| 20260507014522 | 15 | 0.0 | 0.0 | 0.00 | 0.00 | 0.00 | 89 | 1022.9 | |
| 20260507013522 | 15 | 0.0 | 0.0 | 0.00 | 0.00 | 0.00 | 85 | 1021.2 | |
| 20260507012522 | 15 | 0.0 | 0.0 | 0.00 | 0.00 | 0.00 | 91 | 1022.4 | |
| 20260507011522 | 15 | 0.0 | 0.0 | 0.00 | 0.00 | 0.00 | 91 | 1021.9 | |
| 20260507010522 | 15 | 0.0 | 0.0 | 0.00 | 0.00 | 0.00 | 89 | 1022.8 | |
| 20260507005522 | 15 | 0.0 | 0.0 | 0.00 | 0.00 | 0.00 | 87 | 1021.4 | |
| 20260507004538 | 15 | 0.0 | 0.0 | 0.00 | 0.00 | 0.00 | 89 | 1021.5 | |
| 20260507003522 | 15 | 0.0 | 0.0 | 0.00 | 0.00 | 0.00 | 90 | 1022.6 | |
| 20260507002522 | 15 | 0.0 | 0.0 | 0.00 | 0.00 | 0.00 | 87 | 1022.5 | |
| 20260507001538 | 15 | 0.0 | 0.0 | 0.00 | 0.00 | 0.00 | 85 | 1021.2 | |
| 20260507000522 | 15 | 0.0 | 0.0 | 0.00 | 0.00 | 0.00 | 87 | 1022.2 | |
| 20260506235522 | 15 | 0.0 | 0.0 | 0.00 | 0.00 | 0.00 | 85 | 1022.0 | |
| 20260506234522 | 15 | 0.0 | 0.0 | 0.00 | 0.00 | 0.00 | 84 | 1021.8 | |
| 20260506233522 | 15 | 0.0 | 0.0 | 0.00 | 0.00 | 0.00 | 84 | 1023.0 | |
| 20260506232522 | 16 | 0.0 | 0.0 | 0.00 | 0.00 | 0.00 | 79 | 1021.3 | |
| 20260506231522 | 16 | 0.0 | 0.0 | 0.00 | 0.00 | 0.00 | 80 | 1021.6 | |
| 20260506230522 | 16 | 0.0 | 0.0 | 0.00 | 0.00 | 0.00 | 83 | 1022.1 | |
| 20260506225522 | 16 | 0.0 | 0.0 | 0.00 | 0.00 | 0.00 | 81 | 1022.0 | |
| 20260506224538 | 16 | 0.0 | 0.0 | 0.00 | 0.00 | 0.00 | 78 | 1022.4 | |
| 20260506223522 | 16 | 0.0 | 0.0 | 0.00 | 0.00 | 0.00 | 79 | 1022.3 | |
| 20260506222522 | 16 | 0.0 | 0.0 | 0.00 | 0.00 | 0.00 | 76 | 1022.2 | |
| 20260506221522 | 16 | 0.0 | 0.0 | 0.00 | 0.00 | 0.00 | 77 | 1021.9 | |
| 20260506220522 | 16 | 0.0 | 0.0 | 0.00 | 0.00 | 0.00 | 74 | 1022.7 | |
| 20260506215521 | 17 | 0.0 | 0.0 | 0.00 | 0.00 | 0.00 | 73 | 1022.6 | |
| 20260506214521 | 17 | 0.0 | 0.0 | 0.00 | 0.00 | 0.00 | 72 | 1022.0 | |
| 20260506213522 | 17 | 0.0 | 0.0 | 0.00 | 0.00 | 0.00 | 74 | 1022.7 | |
| 20260506212522 | 17 | 0.0 | 0.0 | 0.00 | 0.00 | 0.00 | 68 | 1022.2 | |
| 20260506211522 | 17 | 0.0 | 0.0 | 0.00 | 0.00 | 0.00 | 67 | 1022.6 | |
| 20260506210522 | 18 | 0.0 | 0.0 | 0.00 | 0.00 | 0.00 | 64 | 1021.9 | |
| 20260506205522 | 18 | 0.0 | 0.0 | 0.00 | 0.00 | 0.00 | 62 | 1022.2 | |
| 20260506204522 | 18 | 0.0 | 0.0 | 0.00 | 0.00 | 0.00 | 62 | 1021.7 | |
| 20260506203521 | 18 | 0.0 | 0.0 | 0.00 | 0.00 | 0.00 | 59 | 1022.2 | |
| 20260506202521 | 18 | 0.0 | 0.0 | 0.00 | 0.00 | 0.00 | 58 | 1021.5 | |
| 20260506201537 | 18 | 0.0 | 0.0 | 0.00 | 0.00 | 0.00 | 60 | 1021.4 | |
| 20260506200521 | 18 | 0.0 | 0.0 | 0.00 | 0.00 | 0.00 | 63 | 1021.8 | |
| 20260506195537 | 18 | 0.0 | 0.0 | 0.00 | 0.00 | 0.00 | 65 | 1022.0 | |
| 20260506194524 | 19 | 0.0 | 0.0 | 0.00 | 0.00 | 0.00 | 61 | 1021.9 | |
| 20260506193521 | 19 | 0.0 | 0.0 | 0.00 | 0.00 | 0.00 | 60 | 1021.4 | |
| 20260506192521 | 20 | 0.0 | 0.0 | 0.00 | 0.00 | 0.00 | 59 | 1021.1 | |
| 20260506191522 | 20 | 0.0 | 0.0 | 0.00 | 0.00 | 0.00 | 60 | 1021.0 | |
| 20260506190522 | 20 | 0.0 | 0.0 | 0.00 | 0.00 | 0.00 | 59 | 1021.0 | |
| 20260506185521 | 20 | 0.0 | 0.0 | 0.00 | 0.00 | 0.00 | 63 | 1021.5 | |
| 20260506184521 | 20 | 0.0 | 0.0 | 0.00 | 0.00 | 0.00 | 60 | 1021.5 | |
| 20260506183521 | 21 | 0.0 | 0.0 | 0.00 | 0.00 | 0.00 | 61 | 1020.9 | |
| 20260506182522 | 21 | 0.0 | 0.0 | 0.00 | 0.00 | 0.00 | 59 | 1020.3 | |
| 20260506181522 | 21 | 0.0 | 0.0 | 0.00 | 0.00 | 0.00 | 62 | 1021.5 | |
| 20260506180521 | 21 | 0.0 | 0.0 | 0.00 | 0.00 | 0.00 | 59 | 1020.7 | |
| 20260506175521 | 22 | 0.0 | 0.0 | 0.00 | 0.00 | 0.00 | 56 | 1020.9 | |
| 20260506174526 | 22 | 0.0 | 0.0 | 0.00 | 0.00 | 0.00 | 55 | 1020.6 | |
| 20260506173522 | 23 | 0.0 | 0.0 | 0.00 | 0.00 | 0.00 | 51 | 1020.1 | |
| 20260506172521 | 23 | 0.0 | 0.0 | 0.00 | 0.00 | 0.00 | 48 | 1020.8 | |
| 20260506171521 | 24 | 0.0 | 0.0 | 0.00 | 0.00 | 0.00 | 40 | 1019.8 | |
| 20260506170521 | 24 | 0.0 | 0.0 | 0.00 | 0.00 | 0.00 | 40 | 1019.7 | |
| 20260506165521 | 24 | 0.0 | 0.0 | 0.00 | 0.00 | 0.00 | 40 | 1019.7 | |
| 20260506164537 | 25 | 0.0 | 0.0 | 0.00 | 0.00 | 0.00 | 39 | 1019.4 | |
| 20260506163521 | 25 | 0.0 | 0.0 | 0.00 | 0.00 | 0.00 | 39 | 1019.5 | |
| 20260506162522 | 25 | 0.0 | 0.0 | 0.00 | 0.00 | 0.00 | 39 | 1019.8 | |
| 20260506161552 | 25 | 0.0 | 0.0 | 0.00 | 0.00 | 0.00 | 38 | 1019.7 | |
| 20260506160521 | 26 | 0.0 | 0.0 | 0.00 | 0.00 | 0.00 | 41 | 1019.8 | |
| 20260506155521 | 26 | 0.0 | 0.0 | 0.00 | 0.00 | 0.00 | 40 | 1019.5 | |
| 20260506154521 | 26 | 0.0 | 0.0 | 0.00 | 0.00 | 0.00 | 40 | 1019.3 | |
| 20260506153521 | 26 | 0.0 | 0.0 | 0.00 | 0.00 | 0.00 | 45 | 1018.8 | |
| 20260506152541 | 26 | 0.0 | 0.0 | 0.00 | 0.00 | 0.00 | 46 | 1020.5 | |
| 20260506151521 | 27 | 0.0 | 0.0 | 0.00 | 0.00 | 0.00 | 42 | 1018.9 | |
| 20260506150521 | 27 | 0.0 | 0.0 | 0.00 | 0.00 | 0.00 | 45 | 1019.4 | |
| 20260506145521 | 27 | 0.0 | 0.0 | 0.00 | 0.00 | 0.00 | 43 | 1019.0 | |
| 20260506144551 | 27 | 0.0 | 0.0 | 0.00 | 0.00 | 0.00 | 44 | 1018.8 | |
| 20260506143521 | 27 | 0.0 | 0.0 | 0.00 | 0.00 | 0.00 | 42 | 1019.4 | |
| 20260506142521 | 27 | 0.0 | 0.0 | 0.00 | 0.00 | 0.00 | 41 | 1019.6 |